Frontpage

Topic Replies Views Last post
My Little Rifle by choad
0 1107 2013-05-05 22:45:05 by choad
Happy Bicycle Day! by choad
0 1175 2013-04-20 15:30:45 by choad
Boston Marathon by choad
0 1130 2013-04-17 16:17:26 by choad
The Witch Is Dead by choad
0 1133 2013-04-10 12:49:55 by choad
Free to Be by square
0 1119 2013-04-07 02:52:36 by square
0 1163 2013-03-20 00:04:44 by choad
0 1248 2013-03-19 01:11:20 by choad
D.I.Y. by square
0 1233 2013-03-16 02:27:58 by square
0 1093 2013-03-11 11:35:58 by choad
0 1229 2013-03-09 04:54:28 by square
0 1126 2013-02-25 05:43:17 by choad
Holy See Again by choad
0 1069 2013-02-13 21:35:23 by choad
Baby Mama by square
0 1087 2013-02-10 13:02:33 by square
Gag Order by square
0 1088 2013-01-03 10:31:48 by square
Soul Food by choad
0 1066 2013-01-01 11:27:12 by choad
2012-12-21, Adios by choad
0 1147 2012-12-20 22:48:30 by choad
0 1121 2012-11-30 18:43:14 by choad
0 1121 2012-11-29 02:47:51 by choad
The End Is Nigh by choad
0 1131 2012-11-29 00:46:03 by choad
0 1197 2012-11-28 18:00:55 by choad
Estimated Prophet by choad
0 1193 2012-09-13 06:21:41 by choad
Interment Cycle by square
0 1251 2012-08-23 00:15:26 by square
Home Alone III by choad
0 1230 2012-08-08 05:28:40 by choad
0 1342 2012-07-25 05:32:02 by choad
Robogeddon by choad
0 1309 2012-07-06 10:28:52 by choad
0 1351 2012-07-05 15:05:04 by Decadence
Wanks For The Memories by Decadence
0 1278 2012-07-03 16:19:52 by Decadence
Persian Haze by Decadence
0 1216 2012-07-03 09:41:37 by Decadence
Whiter Than White by square
0 1205 2012-06-21 05:02:42 by square
0 1307 2012-05-27 07:36:10 by Decadence
0 1251 2012-05-24 17:09:28 by choad
After Birther Bio by choad
0 1238 2012-05-24 17:08:15 by choad
0 1217 2012-05-24 17:06:54 by choad
0 1259 2012-05-22 23:17:31 by Decadence
Cage Does Cage by choad
0 1306 2012-04-29 22:28:15 by choad
Penguin Food by choad
0 1320 2012-04-17 08:48:35 by choad
0 1347 2012-04-05 10:15:14 by choad
Michigan Swinicide by choad
0 1362 2012-03-27 23:10:42 by choad
0 1407 2012-03-26 22:48:34 by choad
Rush To Oblivion by choad
0 1373 2012-03-09 02:57:43 by choad
Bye Bye Breitbart by choad
0 1397 2012-03-01 23:13:47 by choad
Chemical Warfare by square
0 1416 2012-02-27 00:28:15 by square
Posthumous Sodomy by square
0 1572 2012-02-26 22:32:43 by square
0 1623 2012-02-24 16:56:50 by choad
Who's Next? by choad
0 1483 2012-02-18 23:57:09 by choad
0 1368 2012-02-14 16:18:17 by choad
Rate Your Rat by choad
0 1427 2012-02-11 12:37:01 by choad
0 1376 2012-02-06 06:58:25 by choad
Newt In Space by choad
0 1431 2012-01-27 23:20:24 by choad
Unfriended by square
0 1436 2012-01-26 03:14:01 by square
Pity Party by square
0 1400 2011-12-21 04:17:31 by square
Human Migration by choad
0 1334 2011-12-13 13:22:59 by choad
Occupy Uranus by choad
0 1329 2011-11-24 17:09:59 by choad
0 1335 2011-11-19 14:13:50 by choad
Socialist Pigeons by choad
0 1310 2011-11-11 07:14:18 by choad
Cain Disabled by choad
0 1305 2011-11-08 23:13:23 by choad
9/11 by choad
0 1332 2011-09-11 00:27:20 by choad
Little Angels by square
0 1319 2011-08-31 00:44:25 by square
Fill 'er Up by square
0 1353 2011-08-25 01:56:05 by square
Fuck A Duck by choad
0 1361 2011-08-10 09:23:43 by choad

Board footer

high-street.org